Regional Weather Roundup
Issued by NWS San Diego, CA

Home | Current Version | Previous Version | Text Only | Print | Product List | Glossary On
Versions: 1 2 3 4 5 6 7 8 9 10 11 12 13 14 15 16 17 18 19 20 21 22 23 24 25 26 27 28 29 30 31 32 33 34 35 36 37 38 39 40 41 42 43 44 45 46 47 48 49 50
000
ASUS46 KSGX 210911
RWRSGX

SAN DIEGO HOURLY WEATHER ROUNDUP
NATIONAL WEATHER SERVICE SAN DIEGO CA
200 AM PDT TUE APR 21 2015

NOTE: "FAIR" INDICATES FEW OR NO CLOUDS BELOW 12,000 FEET WITH NO
SIGNIFICANT WEATHER AND/OR OBSTRUCTIONS TO VISIBILITY.

CAZ042-043-060-061-PZZ750-775-211000-

GREATER SAN DIEGO AREA

CITY           SKY/WX    TMP DP  RH WIND       PRES   REMARKS
LINDBERGH FLD  CLOUDY    62  47  57 SW6       29.92F
POINT LOMA       N/A     57  46  67 W2          N/A
CHULA VISTA      N/A     60  52  74 CALM      29.84F
IMPERIAL BEACH CLOUDY    57  51  80 CALM      29.91F
BROWN FIELD    CLOUDY    58  49  72 CALM      29.90F
MIRAMAR MCAS   MOCLDY    62  47  57 W3        29.90F
MONTGOMERY FLD CLOUDY    60  48  64 SW5       29.91F

$$

NORTH SAN DIEGO COUNTY

CITY           SKY/WX    TMP DP  RH WIND       PRES   REMARKS
CAMP PENDLETON CLOUDY    58  49  72 CALM      29.90F
OCEANSIDE AP   CLOUDY    61  49  64 W3        29.89F
VISTA            N/A     57  51  79 CALM      29.89F
CARLSBAD       CLOUDY    60  48  64 S5        29.89F
DEL MAR          N/A     59  50  71 CALM      29.93S
FALLBROOK        N/A     57  55  92 CALM      29.90F
SAN MARCOS       N/A     58  50  75 CALM      29.89F
POWAY            N/A     58  50  74 CALM      29.92F

$$

EAST SAN DIEGO COUNTY

CITY           SKY/WX    TMP DP  RH WIND       PRES   REMARKS
RAMONA         CLOUDY    54  48  80 W6        29.90F
SANTEE LAKES     N/A     59  51  75 CALM      29.91S
LA MESA          N/A     58  50  74 CALM      29.85F
DESCANSO N       N/A     47  44  90 CALM      29.76F
MT. LAGUNA OBS   N/A     49   9  19 W2        29.55F
CAMPO            N/A     50  46  86 SW7       29.86F

$$

ORANGE COUNTY AND THE LOS ANGELES BASIN

CITY           SKY/WX    TMP DP  RH WIND       PRES   REMARKS
JOHN WAYNE AP  CLOUDY    60  50  69 SE8       29.90F
LAKE FOREST FR   N/A     56  46  70 CALM      29.79F
SANTA ANA        N/A     61  52  71 CALM      29.85F
HUNTINGTON BCH   N/A     59  53  80 CALM      29.92F
LOS ALAMITOS   CLOUDY    59  52  75 SW5       29.90F
FULLERTON      CLOUDY    60  32  34 CALM      29.89F
LONG BEACH     CLOUDY    60  49  66 SW5       29.90F
L.A. AP        MOCLDY    58  50  75 SE5       29.91F
L.A. DOWNTOWN  CLOUDY    60  51  72 VRB3      29.90F

$$

THE INLAND EMPIRE

CITY           SKY/WX    TMP DP  RH WIND       PRES   REMARKS
CORONA         PTCLDY    49  47  93 CALM      29.91S
CHINO          CLOUDY    58  50  75 W5        29.91S
ONTARIO        CLOUDY    56  49  77 W8        29.90F
RIVERSIDE AP   CLOUDY    56  49  77 CALM      29.90F
RIV CYN CREST    N/A     55  55 100 CALM        N/A
MARCH ARB      PTCLDY    51  50  95 SE5       29.90S
HORSETHIEF CYN   N/A     49  43  79 SW3       29.87S
MENIFEE          N/A     53  51  92 CALM      29.95S
HEMET EAST       N/A     51  47  84 CALM      29.89S
FRENCH VALLEY  CLOUDY    54  48  82 SW3       29.90F
TEMECULA         N/A     56  52  86 CALM      29.87S

$$

SAN BERNARDINO AND RIVERSIDE COUNTY MOUNTAINS

CITY           SKY/WX    TMP DP  RH WIND       PRES   REMARKS
BIG BEAR AP    CLEAR     32  19  59 CALM      29.99F
ANGELUS OAKS     N/A     44  23  43 CALM      29.71F

$$

SOUTHERN DESERT INCLUDING THE COACHELLA VALLEY

CITY           SKY/WX    TMP DP  RH WIND       PRES   REMARKS
PALM SPRINGS   CLEAR     68  45  43 NW3       29.75F
THOUSAND PALMS   N/A     66  47  49 NW17      29.72F
THERMAL        CLEAR     68  46  45 NW6G17    29.71F
BLYTHE         CLEAR     70  28  21 SW10      29.74F
IMPERIAL AP    CLEAR     67  44  43 S6        29.73R
EL CENTRO NAS  CLEAR     64  44  48 S6        29.74S
YUMA AZ        CLEAR     70  46  42 SE9       29.74F

$$

UPPER DESERT

CITY           SKY/WX    TMP DP  RH WIND       PRES   REMARKS
VICTORVILLE AP CLEAR     55  39  54 SE13      29.83F
HESPERIA         N/A     52  40  63 W12       29.88F
APPLE VALLEY     N/A     54  38  54 CALM      29.94F
PALMDALE       CLEAR     58  39  49 SW17      29.83F
LANCASTER      CLEAR     57  37  47 SW13      29.82F
EDWARDS AFB    CLEAR     56  36  48 S13       29.79F
DAGGETT        CLEAR     63  34  33 W10       29.79F
NEEDLES        CLEAR     72  21  14 W6        29.74

$$

REGIONAL REPORTS

CITY           SKY/WX    TMP DP  RH WIND       PRES   REMARKS
SANTA BARBARA  CLEAR     55  51  86 E7        29.89S
SANDBERG       CLEAR     48  37  65 SW8       29.91F
MT. WILSON       N/A     50  30  46 MISG        N/A
LAS VEGAS NV   PTCLDY    73  16  11 S10       29.73S
PHOENIX AZ     PTCLDY    73  29  19 E7        29.80R
TIJUANA          N/A    N/A N/A N/A MISG        N/A
ENSENADA NW      N/A     61  32  34 NW6       29.88F

$$

OFFSHORE ISLANDS

CITY           SKY/WX    TMP DP  RH WIND       PRES   REMARKS
CATALINA ARPT  CLOUDY    52  46  80 SW5       29.91F
SAN NICOLAS IS MOCLDY   N/A N/A N/A W7        29.91S

$$

MARINE AND OFFSHORE BUOY REPORTS

STATION/POSITION SKY/WX   TEMP    WIND        PRES    SWELL
                          AIR SEA DIR/SP/G            HT/PER/DIR
                          (F)     (DEG/KT/KT) (MB)    (FT/S/D)
TANNER BANKS               60 62  330/  8/ 10 1012.8F   5/230/14
S CLEMENTE BASIN           60 64  310/  4/  6 1012.6F   3/190/14
SAN NICOLAS IS.               59                N/A     3/280/13
SO. S. ROSA ISLA           57 59  340/ 10/ 14 1011.9F   5/14
W. S. BARBARA CH           55 55  330/  8/ 10 1012.1S   5/290/14
S. MONICA BASIN            58 62   10/  8/  8 1012.5F   2/210/14
S PEDRO CHANNEL               61                N/A     2/210/13
DANA POINT                    64                N/A     2/200/14
CMP PENDLETON NS              62                N/A     2/210/17
OCEANSIDE OFFSHR              63                N/A     2/190/14
TORREY PINES OTR              63                N/A     2/220/13
LA JOLLA 1                 61 64  180/  3/  3 1012.8F
MISSION BAY BUOY              63                N/A     3/210/13
SAN DIEGO BAY                 67              1013.4F
POINT LOMA SOUTH              64                N/A     3/180/14

$$



USA.gov is the U.S. government's official web portal to all federal, state and local government web resources and services.